sat.trackr.live / text

‹ back to catalog

STARLINK-31541

NORAD 59633 · 2024-082C

PAYLOAD ACTIVE UNKNOWN

§ Identity

Operator
Country
US
Launch date
2024-05-03
Launch site
AFETR
Launch vehicle
Mass (kg)
RCS (m²)

Purposes: comms

External: N2YO · Heavens-Above · Gunter

§ Orbital elements

Epoch: 2026-05-25T04:31:54.567264Z

Period
94.27 min
Inclination
43.0005°
Eccentricity
0.0000869
Mean motion
15.27574768 rev/d
Perigee alt
482.5 km
Apogee alt
483.7 km
Semi-major
6,861.2 km
B*
2.1735e-5
RAAN
60.6643°
Arg perigee
272.0844°
Mean anomaly
87.9908°
Rev number
11,678

§ Raw data

STARLINK-315411 59633U 24082C   26145.18882601  .00000336  00000+0  21735-4 0  99972 59633  43.0005  60.6643 0000869 272.0844  87.9908 15.27574768116781

JSON: /api/v1/satellites/59633 · /tle

For live sub-satellite position, see the globe view (requires WebGL).

§ Visibility from observer

Set your observer location to see the next 7 days of passes ≥ 10°. The values pass through the URL so the page stays shareable.

No JS? Fill the form by hand. The geolocation button needs JavaScript.